This is the latest recevied weather packets stored in our database for station/object OK1CBR-13. If no packets are shown the sender has not sent any weather packets the latest 10 day(s).
| Time | Temp. | Humidity | Pressure | Rain* | Wind** | Luminosity | Snow |
|---|---|---|---|---|---|---|---|
| 1777986453 | 28.33° C | 28% | 1006.5 hPa | - | - | - | - |
| 1777985853 | 27.78° C | 30% | 1006.6 hPa | - | - | - | - |
| 1777985253 | 27.78° C | 29% | 1006.7 hPa | - | - | - | - |
| 1777984653 | 27.22° C | 30% | 1006.9 hPa | - | - | - | - |
| 1777984053 | 26.67° C | 30% | 1007.1 hPa | - | - | - | - |
| 1777983453 | 26.67° C | 31% | 1007.2 hPa | - | - | - | - |
| 1777982853 | 26.67° C | 30% | 1007.2 hPa | - | - | - | - |
| 1777982254 | 27.78° C | 30% | 1007.2 hPa | - | - | - | - |
| 1777981653 | 27.22° C | 30% | 1007.4 hPa | - | - | - | - |
| 1777981053 | 26.67° C | 32% | 1007.4 hPa | - | - | - | - |
| 1777980453 | 26.11° C | 31% | 1007.4 hPa | - | - | - | - |
| 1777979853 | 25.56° C | 33% | 1007.6 hPa | - | - | - | - |
| 1777979253 | 25.56° C | 34% | 1007.7 hPa | - | - | - | - |
| 1777978653 | 25° C | 32% | 1007.7 hPa | - | - | - | - |
| 1777978053 | 25° C | 33% | 1007.8 hPa | - | - | - | - |
| 1777977453 | 24.44° C | 35% | 1008 hPa | - | - | - | - |
| 1777976853 | 24.44° C | 34% | 1008.1 hPa | - | - | - | - |
| 1777976253 | 24.44° C | 33% | 1008.2 hPa | - | - | - | - |
| 1777975653 | 23.89° C | 35% | 1008.3 hPa | - | - | - | - |
| 1777975053 | 23.33° C | 36% | 1008.4 hPa | - | - | - | - |
| 1777974453 | 23.33° C | 36% | 1008.5 hPa | - | - | - | - |
| 1777973853 | 22.78° C | 37% | 1008.6 hPa | - | - | - | - |
| 1777973253 | 22.78° C | 38% | 1008.6 hPa | - | - | - | - |
| 1777972653 | 22.22° C | 38% | 1008.6 hPa | - | - | - | - |
| 1777972053 | 21.67° C | 41% | 1008.7 hPa | - | - | - | - |
* Rain since midnight (hover to see other rain measurements)
** Current wind speed in m/s (hover to see current wind gust speed)